HST
1 20580U 90037B   24361.66904699  .00011589  00000-0  48470-3 0  9999
2 20580  28.4671 131.6385 0002262   4.0046 356.0566 15.21978481706345
ISS (ZARYA)
1 25544U 98067A   24361.72100155  .00025292  00000-0  44526-3 0  9991
2 25544  51.6378  81.4466 0005783   8.5494 351.5592 15.50270151488416
CXO
1 25867U 99040B   24363.54907146  .00000542  00000-0  00000-0 0  9995
2 25867  45.6069 138.9847 8664881 305.6489   0.2812  0.37806673 15296